JBU503 KJFK-TJSJ

Flight info

Callsign JBU503
Flight time 3h 28m
Altitude 36000
Route SHIPP Y489 BEHHR/M076F360 Y489 RESQU/M076F370 DCT SKPPR L455 KINCH/N0441F370 L455 LENNT M423 PLING RTE7 SAALR
Aircraft A320/M-SDE3FGHIRWY/LB1

Departure

Time 2026-05-07 19:00
Airport John F. Kennedy International Airport (KJFK)

Arrival

Time 2026-05-07 22:28
Airport Luis Munoz Marin International Airport (TJSJ)
Time Latitude Longitude Altitude Speed Heading
2026-05-07 18:20 40.64530 -73.77386 23 ft 0 kts 357°
2026-05-07 18:45 40.64527 -73.77386 23 ft 2 kts 357°
2026-05-07 18:45 40.64506 -73.77385 23 ft 4 kts
2026-05-07 18:45 40.64483 -73.77396 23 ft 4 kts 52°
2026-05-07 18:45 40.64470 -73.77427 23 ft 4 kts 66°
2026-05-07 18:46 40.64458 -73.77455 23 ft 3 kts 33°
2026-05-07 18:46 40.64441 -73.77468 24 ft 1 kts 30°
2026-05-07 18:46 40.64440 -73.77469 23 ft 0 kts 30°
2026-05-07 18:50 40.64441 -73.77468 23 ft 1 kts 30°
2026-05-07 18:50 40.64453 -73.77457 23 ft 3 kts 38°
2026-05-07 18:51 40.64469 -73.77424 23 ft 5 kts 69°
2026-05-07 18:51 40.64473 -73.77366 23 ft 7 kts 88°
2026-05-07 18:51 40.64473 -73.77291 23 ft 9 kts 90°
2026-05-07 18:51 40.64465 -73.77215 23 ft 8 kts 114°
2026-05-07 18:52 40.64441 -73.77150 24 ft 7 kts 114°
2026-05-07 18:52 40.64395 -73.77136 25 ft 9 kts 197°
2026-05-07 18:52 40.64336 -73.77178 22 ft 11 kts 210°
2026-05-07 18:52 40.64270 -73.77230 23 ft 11 kts 211°
2026-05-07 18:53 40.64202 -73.77283 26 ft 11 kts 210°
2026-05-07 18:53 40.64127 -73.77341 24 ft 14 kts 211°
2026-05-07 18:53 40.64033 -73.77416 23 ft 17 kts 210°
2026-05-07 18:53 40.63930 -73.77496 23 ft 13 kts 211°
2026-05-07 18:54 40.63872 -73.77541 20 ft 15 kts 211°
2026-05-07 18:54 40.63783 -73.77610 20 ft 14 kts 211°
2026-05-07 18:54 40.63698 -73.77677 21 ft 15 kts 210°
2026-05-07 18:54 40.63601 -73.77753 20 ft 17 kts 211°
2026-05-07 18:55 40.63499 -73.77833 25 ft 17 kts 211°
2026-05-07 18:55 40.63414 -73.77939 25 ft 18 kts 246°
2026-05-07 18:55 40.63425 -73.78076 24 ft 11 kts 298°
2026-05-07 18:55 40.63452 -73.78163 25 ft 7 kts 258°
2026-05-07 18:56 40.63412 -73.78204 26 ft 7 kts 211°
2026-05-07 18:56 40.63389 -73.78222 29 ft 0 kts 211°
2026-05-07 18:57 40.63383 -73.78227 25 ft 3 kts 211°
2026-05-07 18:57 40.63357 -73.78248 26 ft 6 kts 211°
2026-05-07 18:58 40.63314 -73.78295 24 ft 9 kts 254°
2026-05-07 18:58 40.63325 -73.78338 22 ft 0 kts 300°
2026-05-07 18:59 40.63331 -73.78351 22 ft 9 kts 300°
2026-05-07 18:59 40.63484 -73.78690 26 ft 76 kts 301°
2026-05-07 18:59 40.63856 -73.79508 22 ft 129 kts 301°
2026-05-07 18:59 40.64373 -73.80666 102 ft 162 kts 303°
2026-05-07 19:00 40.64768 -73.82029 732 ft 163 kts 276°
2026-05-07 19:00 40.64464 -73.83496 1299 ft 173 kts 238°
2026-05-07 19:00 40.63692 -73.84796 1690 ft 187 kts 233°
2026-05-07 19:00 40.62781 -73.86126 2083 ft 208 kts 224°
2026-05-07 19:01 40.61530 -73.87300 2418 ft 234 kts 206°
2026-05-07 19:01 40.59858 -73.87619 2831 ft 258 kts 173°
2026-05-07 19:01 40.58136 -73.86848 3574 ft 267 kts 147°
2026-05-07 19:01 40.56847 -73.85090 4416 ft 272 kts 116°
2026-05-07 19:02 40.56122 -73.82824 5268 ft 275 kts 111°
2026-05-07 19:02 40.55286 -73.80522 6023 ft 283 kts 115°
2026-05-07 19:02 40.54337 -73.78199 6691 ft 293 kts 118°
2026-05-07 19:02 40.53335 -73.75821 7378 ft 301 kts 120°
2026-05-07 19:03 40.52309 -73.73374 8092 ft 309 kts 121°
2026-05-07 19:03 40.51275 -73.70865 8799 ft 317 kts 122°
2026-05-07 19:03 40.50226 -73.68280 9502 ft 324 kts 123°
2026-05-07 19:03 40.49168 -73.65635 10127 ft 332 kts 123°
2026-05-07 19:04 40.48061 -73.62856 10375 ft 356 kts 124°
2026-05-07 19:04 40.46889 -73.59912 10761 ft 370 kts 123°
2026-05-07 19:04 40.45700 -73.56895 11405 ft 374 kts 124°
2026-05-07 19:04 40.44504 -73.53848 12104 ft 377 kts 124°
2026-05-07 19:05 40.43299 -73.50786 12825 ft 379 kts 124°
2026-05-07 19:05 40.42084 -73.47704 13551 ft 381 kts 125°
2026-05-07 19:05 40.40862 -73.44611 14175 ft 383 kts 125°
2026-05-07 19:05 40.39625 -73.41489 14740 ft 388 kts 126°
2026-05-07 19:06 40.38372 -73.38335 15284 ft 392 kts 126°
2026-05-07 19:06 40.35814 -73.31918 16361 ft 401 kts 126°
2026-05-07 19:06 40.34507 -73.28663 16856 ft 407 kts 127°
2026-05-07 19:07 40.33172 -73.25359 17292 ft 412 kts 129°
2026-05-07 19:07 40.31663 -73.22172 17744 ft 414 kts 134°
2026-05-07 19:07 40.30078 -73.18995 18231 ft 419 kts 135°
2026-05-07 19:07 40.28470 -73.15780 18700 ft 424 kts 135°
2026-05-07 19:08 40.26852 -73.12540 19234 ft 427 kts 135°
2026-05-07 19:08 40.25226 -73.09280 19789 ft 429 kts 135°
2026-05-07 19:08 40.23590 -73.06004 20360 ft 431 kts 136°
2026-05-07 19:08 40.21943 -73.02712 20903 ft 433 kts 136°
2026-05-07 19:09 40.20270 -72.99366 21448 ft 435 kts 136°
2026-05-07 19:09 40.18608 -72.96044 21979 ft 438 kts 136°
2026-05-07 19:09 40.16935 -72.92703 22491 ft 439 kts 136°
2026-05-07 19:09 40.15285 -72.89408 23059 ft 440 kts 136°
2026-05-07 19:10 40.13604 -72.86056 23580 ft 442 kts 136°
2026-05-07 19:10 40.11910 -72.82692 23997 ft 444 kts 136°
2026-05-07 19:10 40.10208 -72.79311 24375 ft 448 kts 136°
2026-05-07 19:10 40.08535 -72.75845 24743 ft 454 kts 134°
2026-05-07 19:11 40.06904 -72.72288 25089 ft 459 kts 133°
2026-05-07 19:11 40.05293 -72.68660 25435 ft 464 kts 133°
2026-05-07 19:11 40.03682 -72.64992 25777 ft 468 kts 133°
2026-05-07 19:11 40.02055 -72.61300 26093 ft 471 kts 133°
2026-05-07 19:12 40.00404 -72.57592 26360 ft 475 kts 133°
2026-05-07 19:12 39.98725 -72.53873 26673 ft 478 kts 133°
2026-05-07 19:12 39.97020 -72.50133 27001 ft 481 kts 134°
2026-05-07 19:12 39.95313 -72.46368 27332 ft 485 kts 133°
2026-05-07 19:13 39.93617 -72.42557 27660 ft 488 kts 133°
2026-05-07 19:13 39.91925 -72.38697 27990 ft 492 kts 133°
2026-05-07 19:13 39.90234 -72.34809 28311 ft 495 kts 133°
2026-05-07 19:13 39.88532 -72.30900 28641 ft 498 kts 133°
2026-05-07 19:14 39.86814 -72.26973 28953 ft 501 kts 133°
2026-05-07 19:14 39.85081 -72.23033 29304 ft 500 kts 133°
2026-05-07 19:14 39.83352 -72.19121 29814 ft 499 kts 134°
2026-05-07 19:14 39.81617 -72.15211 30168 ft 499 kts 134°
2026-05-07 19:15 39.79875 -72.11295 30457 ft 501 kts 134°
2026-05-07 19:15 39.78123 -72.07371 30733 ft 503 kts 134°
2026-05-07 19:15 39.76356 -72.03434 31083 ft 501 kts 135°
2026-05-07 19:15 39.74422 -71.99768 31459 ft 484 kts 143°
2026-05-07 19:16 39.72239 -71.96538 31812 ft 468 kts 151°
2026-05-07 19:16 39.69890 -71.93670 32118 ft 462 kts 152°
2026-05-07 19:16 39.67533 -71.90847 32491 ft 460 kts 151°
2026-05-07 19:16 39.65186 -71.88035 32921 ft 458 kts 149°
2026-05-07 19:17 39.62853 -71.85239 33348 ft 456 kts 150°
2026-05-07 19:17 39.60524 -71.82452 33745 ft 455 kts 150°
2026-05-07 19:17 39.58198 -71.79672 34092 ft 455 kts 150°
2026-05-07 19:17 39.55870 -71.76888 34385 ft 455 kts 150°
2026-05-07 19:18 39.53533 -71.74127 34631 ft 452 kts 153°
2026-05-07 19:18 39.51046 -71.71735 34858 ft 439 kts 162°
2026-05-07 19:18 39.48417 -71.69862 35084 ft 425 kts 169°
2026-05-07 19:18 39.45697 -71.68487 35332 ft 416 kts 175°
2026-05-07 19:19 39.42960 -71.67275 35521 ft 417 kts 175°
2026-05-07 19:19 39.40206 -71.66052 35654 ft 421 kts 175°
2026-05-07 19:19 39.37426 -71.64811 35830 ft 423 kts 175°
2026-05-07 19:19 39.34638 -71.63559 35963 ft 425 kts 175°
2026-05-07 19:20 39.31837 -71.62297 35854 ft 424 kts 175°
2026-05-07 19:20 39.29055 -71.61038 35890 ft 424 kts 175°
2026-05-07 19:20 39.23478 -71.58526 35889 ft 424 kts 175°
2026-05-07 19:21 39.20686 -71.57420 35888 ft 413 kts 181°
2026-05-07 19:21 39.17900 -71.56835 35887 ft 398 kts 189°
2026-05-07 19:21 39.12456 -71.56503 35888 ft 394 kts 191°
2026-05-07 19:22 39.06965 -71.56186 35882 ft 395 kts 191°
2026-05-07 19:22 39.01462 -71.55843 35877 ft 397 kts 191°
2026-05-07 19:23 38.95936 -71.55501 35841 ft 399 kts 191°
2026-05-07 19:23 38.90378 -71.55162 35843 ft 400 kts 190°
2026-05-07 19:24 38.84800 -71.54821 35854 ft 402 kts 190°
2026-05-07 19:24 38.79206 -71.54488 35864 ft 403 kts 190°
2026-05-07 19:25 38.73597 -71.54151 35867 ft 407 kts 190°
2026-05-07 19:25 38.67918 -71.53821 35874 ft 410 kts 190°
2026-05-07 19:26 38.62185 -71.53469 35874 ft 414 kts 189°
2026-05-07 19:26 38.56439 -71.53116 35891 ft 413 kts 190°
2026-05-07 19:27 38.50704 -71.52705 35856 ft 413 kts 189°
2026-05-07 19:27 38.44957 -71.52236 35863 ft 414 kts 189°
2026-05-07 19:28 38.39185 -71.51778 35877 ft 416 kts 189°
2026-05-07 19:28 38.33430 -71.51313 35875 ft 412 kts 189°
2026-05-07 19:29 38.27685 -71.50859 35842 ft 416 kts 189°
2026-05-07 19:29 38.21892 -71.50426 35851 ft 418 kts 189°
2026-05-07 19:30 38.16085 -71.49973 35854 ft 419 kts 189°
2026-05-07 19:30 38.10318 -71.49528 35870 ft 417 kts 189°
2026-05-07 19:31 38.04514 -71.49081 35841 ft 419 kts 190°
2026-05-07 19:31 37.98659 -71.48628 35834 ft 422 kts 190°
2026-05-07 19:32 37.92799 -71.48179 35852 ft 422 kts 189°
2026-05-07 19:32 37.86938 -71.47716 35858 ft 422 kts 189°
2026-05-07 19:33 37.81102 -71.47264 35849 ft 420 kts 189°
2026-05-07 19:33 37.75270 -71.46810 35858 ft 420 kts 189°
2026-05-07 19:34 37.69444 -71.46358 35864 ft 419 kts 189°
2026-05-07 19:34 37.63619 -71.45912 35833 ft 420 kts 189°
2026-05-07 19:35 37.57793 -71.45461 35827 ft 419 kts 188°
2026-05-07 19:35 37.52957 -71.45095 35829 ft 419 kts 189°
2026-05-07 19:36 37.47092 -71.43976 35833 ft 441 kts 174°
2026-05-07 19:36 37.44188 -71.42521 35831 ft 456 kts 166°
2026-05-07 19:36 37.41328 -71.40799 35833 ft 457 kts 166°
2026-05-07 19:37 37.35570 -71.37369 35831 ft 461 kts 167°
2026-05-07 19:37 37.29757 -71.33925 35839 ft 462 kts 167°
2026-05-07 19:38 37.23931 -71.30477 35847 ft 463 kts 167°
2026-05-07 19:38 37.18113 -71.27042 35845 ft 462 kts 167°
2026-05-07 19:39 37.12281 -71.23607 35813 ft 463 kts 167°
2026-05-07 19:39 37.06433 -71.20168 35823 ft 465 kts 167°
2026-05-07 19:40 37.00573 -71.16723 35840 ft 465 kts 167°
2026-05-07 19:40 36.94709 -71.13290 35844 ft 465 kts 167°
2026-05-07 19:41 36.88840 -71.09854 35848 ft 466 kts 167°
2026-05-07 19:41 36.82956 -71.06413 35849 ft 465 kts 166°
2026-05-07 19:42 36.77089 -71.02977 35850 ft 466 kts 167°
2026-05-07 19:42 36.71221 -70.99555 35855 ft 464 kts 167°
2026-05-07 19:43 36.65384 -70.96170 35855 ft 462 kts 167°
2026-05-07 19:43 36.59548 -70.92804 35816 ft 463 kts 167°
2026-05-07 19:44 36.53671 -70.89396 35821 ft 466 kts 166°
2026-05-07 19:44 36.47807 -70.85989 35817 ft 466 kts 166°
2026-05-07 19:45 36.41902 -70.82585 35829 ft 468 kts 166°
2026-05-07 19:45 36.36003 -70.79176 35807 ft 469 kts 166°
2026-05-07 19:46 36.30057 -70.75783 35841 ft 474 kts 166°
2026-05-07 19:46 36.24169 -70.72383 35890 ft 468 kts 166°
2026-05-07 19:47 36.18205 -70.68935 35897 ft 471 kts 166°
2026-05-07 19:47 36.12318 -70.65558 35878 ft 469 kts 166°
2026-05-07 19:48 36.06389 -70.62186 35861 ft 466 kts 165°
2026-05-07 19:48 36.00528 -70.58856 35851 ft 463 kts 165°
2026-05-07 19:49 35.94646 -70.55516 35853 ft 467 kts 165°
2026-05-07 19:49 35.88727 -70.52156 35862 ft 470 kts 165°
2026-05-07 19:50 35.82777 -70.48774 35856 ft 472 kts 164°
2026-05-07 19:50 35.76797 -70.45448 35876 ft 467 kts 169°
2026-05-07 19:51 35.70628 -70.43458 35885 ft 455 kts 178°
2026-05-07 19:51 35.64417 -70.41815 35905 ft 458 kts 178°
2026-05-07 19:52 35.58183 -70.40148 35901 ft 458 kts 177°
2026-05-07 19:52 35.51940 -70.38491 35935 ft 460 kts 177°
2026-05-07 19:53 35.45685 -70.36831 35946 ft 458 kts 177°
2026-05-07 19:53 35.39459 -70.35177 35930 ft 459 kts 177°
2026-05-07 19:54 35.33214 -70.33542 35883 ft 457 kts 178°
2026-05-07 19:54 35.26984 -70.31894 35899 ft 457 kts 177°
2026-05-07 19:55 35.20780 -70.30253 35910 ft 457 kts 178°
2026-05-07 19:55 35.14548 -70.28622 35915 ft 459 kts 178°
2026-05-07 19:56 35.08297 -70.26983 35903 ft 460 kts 177°
2026-05-07 19:56 35.02045 -70.25339 35910 ft 460 kts 177°
2026-05-07 19:57 34.95764 -70.23696 35924 ft 462 kts 177°
2026-05-07 19:57 34.89489 -70.22043 35945 ft 461 kts 177°
2026-05-07 19:58 34.83211 -70.20402 35937 ft 461 kts 177°
2026-05-07 19:58 34.76930 -70.18772 35930 ft 462 kts 176°
2026-05-07 19:59 34.70689 -70.17145 35940 ft 462 kts 176°
2026-05-07 19:59 34.64401 -70.15511 35950 ft 462 kts 176°
2026-05-07 20:00 34.58112 -70.13886 35941 ft 461 kts 176°
2026-05-07 20:00 34.51822 -70.12255 35933 ft 461 kts 176°
2026-05-07 20:01 34.45558 -70.10622 35941 ft 459 kts 176°
2026-05-07 20:01 34.39305 -70.09016 35935 ft 461 kts 176°
2026-05-07 20:02 34.33038 -70.07401 35931 ft 460 kts 176°
2026-05-07 20:02 34.26775 -70.05780 35945 ft 462 kts 177°
2026-05-07 20:03 34.20490 -70.04170 35950 ft 462 kts 176°
2026-05-07 20:03 34.14197 -70.02572 35962 ft 462 kts 176°
2026-05-07 20:04 34.07903 -70.00951 35945 ft 463 kts 176°
2026-05-07 20:04 34.01611 -69.99340 35937 ft 463 kts 176°
2026-05-07 20:05 33.95323 -69.97727 35946 ft 462 kts 176°
2026-05-07 20:05 33.89030 -69.96129 35945 ft 462 kts 175°
2026-05-07 20:06 33.82726 -69.94523 35962 ft 464 kts 176°
2026-05-07 20:06 33.76408 -69.92912 35964 ft 464 kts 175°
2026-05-07 20:07 33.70090 -69.91293 35972 ft 464 kts 176°
2026-05-07 20:07 33.63764 -69.89700 35985 ft 464 kts 176°
2026-05-07 20:08 33.57444 -69.88104 35988 ft 464 kts 176°
2026-05-07 20:08 33.51161 -69.86510 35993 ft 465 kts 175°
2026-05-07 20:09 33.44837 -69.84915 35998 ft 463 kts 175°
2026-05-07 20:10 33.35392 -69.82543 35997 ft 462 kts 175°
2026-05-07 20:10 33.29096 -69.80952 35969 ft 463 kts 175°
2026-05-07 20:11 33.22789 -69.79375 35989 ft 463 kts 175°
2026-05-07 20:11 33.16486 -69.77790 35995 ft 463 kts 175°
2026-05-07 20:12 33.10184 -69.76203 36008 ft 463 kts 175°
2026-05-07 20:12 33.03874 -69.74635 35997 ft 463 kts 175°
2026-05-07 20:13 32.97556 -69.73059 36008 ft 464 kts 174°
2026-05-07 20:13 32.91247 -69.71485 36010 ft 463 kts 174°
2026-05-07 20:14 32.84934 -69.69910 36016 ft 463 kts 174°
2026-05-07 20:14 32.78604 -69.68337 36032 ft 465 kts 174°
2026-05-07 20:15 32.72268 -69.66764 36016 ft 465 kts 174°
2026-05-07 20:15 32.65928 -69.65193 36023 ft 466 kts 174°
2026-05-07 20:16 32.59583 -69.63623 36033 ft 466 kts 174°
2026-05-07 20:16 32.53230 -69.62059 36040 ft 466 kts 174°
2026-05-07 20:17 32.46880 -69.60490 36030 ft 466 kts 174°
2026-05-07 20:17 32.40521 -69.58927 36034 ft 467 kts 174°
2026-05-07 20:18 32.35234 -69.57630 36036 ft 467 kts 174°
2026-05-07 20:18 32.28858 -69.56062 36045 ft 468 kts 174°
2026-05-07 20:19 32.21459 -69.54239 36027 ft 467 kts 174°
2026-05-07 20:19 32.15083 -69.52677 36033 ft 468 kts 174°
2026-05-07 20:20 32.09733 -69.51372 36040 ft 469 kts 174°
2026-05-07 20:20 32.03339 -69.49806 36044 ft 469 kts 174°
2026-05-07 20:21 31.96993 -69.48257 36032 ft 469 kts 174°
2026-05-07 20:21 31.90596 -69.46702 36035 ft 470 kts 174°
2026-05-07 20:22 31.84194 -69.45142 36044 ft 470 kts 174°
2026-05-07 20:22 31.77785 -69.43582 36049 ft 470 kts 174°
2026-05-07 20:23 31.71377 -69.42025 36050 ft 470 kts 174°
2026-05-07 20:23 31.64962 -69.40474 36055 ft 470 kts 174°
2026-05-07 20:24 31.58548 -69.38934 36062 ft 471 kts 174°
2026-05-07 20:24 31.52129 -69.37389 36067 ft 471 kts 174°
2026-05-07 20:25 31.45713 -69.35841 36070 ft 471 kts 174°
2026-05-07 20:25 31.39297 -69.34283 36064 ft 471 kts 173°
2026-05-07 20:26 31.32885 -69.32739 36059 ft 471 kts 174°
2026-05-07 20:26 31.26469 -69.31204 36063 ft 471 kts 174°
2026-05-07 20:27 31.20044 -69.29657 36072 ft 471 kts 174°
2026-05-07 20:27 31.13622 -69.28117 36053 ft 472 kts 173°
2026-05-07 20:28 31.07185 -69.26579 36063 ft 472 kts 173°
2026-05-07 20:28 31.00759 -69.25045 36067 ft 472 kts 173°
2026-05-07 20:29 30.94312 -69.23511 36071 ft 473 kts 173°
2026-05-07 20:29 30.87867 -69.21977 36058 ft 473 kts 173°
2026-05-07 20:30 30.81412 -69.20438 36061 ft 473 kts 173°
2026-05-07 20:30 30.74957 -69.18903 36070 ft 473 kts 173°
2026-05-07 20:31 30.68501 -69.17372 36071 ft 474 kts 173°
2026-05-07 20:31 30.62040 -69.15844 36063 ft 474 kts 173°
2026-05-07 20:32 30.55576 -69.14313 36067 ft 474 kts 173°
2026-05-07 20:32 30.49102 -69.12788 36070 ft 475 kts 173°
2026-05-07 20:33 30.42670 -69.11277 36085 ft 475 kts 173°
2026-05-07 20:33 30.36187 -69.09745 36088 ft 475 kts 173°
2026-05-07 20:34 30.29711 -69.08210 36075 ft 475 kts 173°
2026-05-07 20:34 30.23227 -69.06680 36077 ft 476 kts 173°
2026-05-07 20:35 30.16739 -69.05158 36079 ft 476 kts 173°
2026-05-07 20:35 30.10246 -69.03641 36085 ft 476 kts 173°
2026-05-07 20:36 30.03752 -69.02126 36080 ft 476 kts 172°
2026-05-07 20:36 29.97254 -69.00604 36086 ft 476 kts 172°
2026-05-07 20:37 29.90756 -68.99084 36092 ft 477 kts 172°
2026-05-07 20:37 29.84251 -68.97572 36099 ft 477 kts 172°
2026-05-07 20:38 29.77746 -68.96056 36088 ft 477 kts 172°
2026-05-07 20:38 29.71237 -68.94544 36093 ft 477 kts 172°
2026-05-07 20:39 29.64734 -68.93038 36099 ft 477 kts 172°
2026-05-07 20:39 29.58224 -68.91534 36101 ft 477 kts 172°
2026-05-07 20:40 29.51709 -68.90027 36103 ft 477 kts 172°
2026-05-07 20:40 29.45196 -68.88512 36095 ft 478 kts 172°
2026-05-07 20:41 29.38727 -68.87014 36104 ft 478 kts 172°
2026-05-07 20:41 29.32206 -68.85506 36114 ft 478 kts 172°
2026-05-07 20:42 29.25687 -68.84005 36116 ft 478 kts 172°
2026-05-07 20:42 29.19169 -68.82504 36106 ft 478 kts 172°
2026-05-07 20:43 29.12651 -68.81010 36110 ft 478 kts 172°
2026-05-07 20:43 29.06131 -68.79512 36109 ft 478 kts 172°
2026-05-07 20:44 28.99615 -68.78021 36109 ft 478 kts 172°
2026-05-07 20:44 28.93098 -68.76536 36110 ft 478 kts 172°
2026-05-07 20:45 28.86576 -68.75044 36109 ft 478 kts 172°
2026-05-07 20:45 28.80052 -68.73550 36110 ft 477 kts 172°
2026-05-07 20:46 28.73544 -68.72061 36110 ft 477 kts 172°
2026-05-07 20:46 28.67028 -68.70583 36110 ft 477 kts 172°
2026-05-07 20:47 28.60512 -68.69103 36100 ft 477 kts 172°
2026-05-07 20:47 28.53997 -68.67622 36103 ft 478 kts 172°
2026-05-07 20:48 28.47518 -68.66146 36111 ft 478 kts 172°
2026-05-07 20:48 28.40994 -68.64669 36112 ft 478 kts 172°
2026-05-07 20:49 28.34477 -68.63203 36107 ft 478 kts 172°
2026-05-07 20:49 28.27950 -68.61728 36110 ft 478 kts 172°
2026-05-07 20:50 28.21426 -68.60254 36114 ft 478 kts 172°
2026-05-07 20:50 28.14907 -68.58778 36115 ft 478 kts 172°
2026-05-07 20:51 28.08387 -68.57314 36101 ft 477 kts 172°
2026-05-07 20:51 28.01872 -68.55848 36102 ft 477 kts 172°
2026-05-07 20:52 27.95347 -68.54379 36102 ft 478 kts 171°
2026-05-07 20:52 27.88828 -68.52913 36106 ft 478 kts 172°
2026-05-07 20:53 27.82302 -68.51458 36107 ft 478 kts 172°
2026-05-07 20:53 27.75775 -68.50004 36100 ft 478 kts 172°
2026-05-07 20:54 27.69247 -68.48547 36103 ft 478 kts 171°
2026-05-07 20:54 27.62717 -68.47089 36105 ft 478 kts 172°
2026-05-07 20:55 27.56184 -68.45636 36102 ft 479 kts 171°
2026-05-07 20:55 27.49654 -68.44173 36099 ft 479 kts 171°
2026-05-07 20:56 27.43121 -68.42716 36101 ft 479 kts 171°
2026-05-07 20:56 27.36578 -68.41263 36101 ft 479 kts 171°
2026-05-07 20:57 27.30075 -68.39821 36104 ft 479 kts 171°
2026-05-07 20:57 27.23537 -68.38364 36103 ft 479 kts 171°
2026-05-07 20:58 27.16991 -68.36920 36097 ft 479 kts 171°
2026-05-07 20:58 27.10456 -68.35488 36102 ft 479 kts 171°
2026-05-07 20:59 27.03916 -68.34036 36099 ft 479 kts 171°
2026-05-07 20:59 26.97382 -68.32590 36103 ft 479 kts 171°
2026-05-07 21:00 26.90843 -68.31156 36099 ft 479 kts 171°
2026-05-07 21:00 26.84302 -68.29713 36110 ft 479 kts 171°
2026-05-07 21:01 26.77763 -68.28267 36113 ft 478 kts 171°
2026-05-07 21:01 26.71229 -68.26830 36112 ft 479 kts 171°
2026-05-07 21:02 26.64687 -68.25400 36109 ft 479 kts 171°
2026-05-07 21:02 26.58149 -68.23977 36112 ft 478 kts 171°
2026-05-07 21:03 26.51618 -68.22549 36116 ft 478 kts 171°
2026-05-07 21:03 26.45095 -68.21120 36111 ft 478 kts 171°
2026-05-07 21:04 26.39673 -68.19934 36111 ft 478 kts 171°
2026-05-07 21:04 26.33144 -68.18513 36112 ft 478 kts 171°
2026-05-07 21:05 26.26621 -68.17099 36111 ft 477 kts 171°
2026-05-07 21:05 26.20103 -68.15681 36110 ft 477 kts 171°
2026-05-07 21:06 26.13579 -68.14264 36110 ft 478 kts 171°
2026-05-07 21:06 26.07055 -68.12850 36109 ft 477 kts 171°
2026-05-07 21:07 26.00536 -68.11433 36109 ft 477 kts 171°
2026-05-07 21:07 25.94018 -68.10026 36109 ft 477 kts 171°
2026-05-07 21:08 25.87504 -68.08616 36107 ft 477 kts 171°
2026-05-07 21:08 25.81027 -68.07215 36107 ft 477 kts 171°
2026-05-07 21:09 25.74466 -68.05797 36102 ft 477 kts 171°
2026-05-07 21:09 25.67945 -68.04393 36105 ft 477 kts 171°
2026-05-07 21:10 25.61426 -68.02990 36106 ft 477 kts 171°
2026-05-07 21:10 25.54907 -68.01589 36107 ft 477 kts 171°
2026-05-07 21:11 25.48392 -68.00184 36103 ft 477 kts 171°
2026-05-07 21:11 25.38670 -67.98094 36099 ft 476 kts 171°
2026-05-07 21:12 25.32159 -67.96704 36096 ft 477 kts 171°
2026-05-07 21:12 25.25644 -67.95313 36098 ft 477 kts 171°
2026-05-07 21:13 25.19133 -67.93925 36104 ft 476 kts 171°
2026-05-07 21:13 25.12625 -67.92534 36093 ft 476 kts 170°
2026-05-07 21:14 25.06122 -67.91139 36098 ft 476 kts 170°
2026-05-07 21:14 24.99622 -67.89753 36097 ft 476 kts 170°
2026-05-07 21:15 24.93124 -67.88376 36090 ft 476 kts 170°
2026-05-07 21:15 24.86631 -67.86997 36086 ft 475 kts 170°
2026-05-07 21:16 24.80137 -67.85616 36080 ft 475 kts 170°
2026-05-07 21:16 24.73636 -67.84240 36081 ft 476 kts 170°
2026-05-07 21:17 24.67131 -67.82858 36090 ft 476 kts 170°
2026-05-07 21:17 24.60626 -67.81475 36091 ft 477 kts 170°
2026-05-07 21:18 24.54107 -67.80091 36096 ft 477 kts 170°
2026-05-07 21:18 24.47584 -67.78721 36099 ft 478 kts 170°
2026-05-07 21:19 24.41052 -67.77353 36094 ft 477 kts 170°
2026-05-07 21:19 24.34531 -67.75977 36092 ft 477 kts 169°
2026-05-07 21:20 24.28016 -67.74602 36089 ft 477 kts 170°
2026-05-07 21:20 24.21501 -67.73221 36085 ft 477 kts 169°
2026-05-07 21:21 24.14978 -67.71852 36083 ft 477 kts 169°
2026-05-07 21:21 24.08491 -67.70495 36083 ft 478 kts 169°
2026-05-07 21:22 24.01961 -67.69128 36082 ft 478 kts 169°
2026-05-07 21:22 23.95431 -67.67758 36085 ft 478 kts 169°
2026-05-07 21:23 23.88900 -67.66388 36082 ft 478 kts 169°
2026-05-07 21:23 23.82359 -67.65026 36081 ft 478 kts 169°
2026-05-07 21:24 23.75823 -67.63662 36081 ft 479 kts 169°
2026-05-07 21:24 23.69277 -67.62297 36084 ft 479 kts 169°
2026-05-07 21:25 23.62723 -67.60933 36084 ft 479 kts 168°
2026-05-07 21:25 23.56168 -67.59565 36081 ft 480 kts 168°
2026-05-07 21:26 23.49612 -67.58197 36079 ft 480 kts 168°
2026-05-07 21:26 23.43054 -67.56840 36080 ft 480 kts 168°
2026-05-07 21:27 23.36496 -67.55489 36079 ft 480 kts 168°
2026-05-07 21:27 23.29937 -67.54135 36086 ft 480 kts 168°
2026-05-07 21:28 23.23368 -67.52760 36059 ft 481 kts 168°
2026-05-07 21:28 23.16780 -67.51399 36053 ft 482 kts 168°
2026-05-07 21:29 23.10188 -67.50040 36060 ft 483 kts 168°
2026-05-07 21:29 23.03587 -67.48669 36059 ft 483 kts 168°
2026-05-07 21:30 22.96976 -67.47306 36062 ft 483 kts 168°
2026-05-07 21:30 22.90362 -67.45950 36067 ft 484 kts 168°
2026-05-07 21:31 22.83742 -67.44582 36072 ft 485 kts 168°
2026-05-07 21:31 22.77116 -67.43216 36075 ft 485 kts 168°
2026-05-07 21:32 22.70489 -67.41855 36075 ft 485 kts 168°
2026-05-07 21:32 22.63906 -67.40507 36076 ft 485 kts 167°
2026-05-07 21:33 22.57234 -67.39132 36075 ft 485 kts 167°
2026-05-07 21:33 22.50651 -67.37778 36076 ft 485 kts 167°
2026-05-07 21:34 22.44018 -67.36421 36076 ft 485 kts 167°
2026-05-07 21:34 22.37395 -67.35066 36073 ft 485 kts 167°
2026-05-07 21:35 22.30767 -67.33706 36073 ft 485 kts 167°
2026-05-07 21:35 22.24129 -67.32349 36075 ft 485 kts 167°
2026-05-07 21:36 22.17492 -67.31005 36072 ft 486 kts 167°
2026-05-07 21:36 22.10843 -67.29648 36075 ft 486 kts 167°
2026-05-07 21:37 22.04196 -67.28293 36077 ft 486 kts 167°
2026-05-07 21:37 21.97543 -67.26951 36082 ft 486 kts 167°
2026-05-07 21:38 21.90900 -67.25605 36077 ft 486 kts 167°
2026-05-07 21:38 21.84246 -67.24251 36079 ft 486 kts 167°
2026-05-07 21:39 21.77595 -67.22899 36076 ft 486 kts 167°
2026-05-07 21:39 21.70942 -67.21555 36090 ft 487 kts 167°
2026-05-07 21:40 21.64283 -67.20208 36080 ft 487 kts 166°
2026-05-07 21:40 21.57606 -67.18881 36075 ft 488 kts 167°
2026-05-07 21:41 21.50917 -67.17659 36075 ft 488 kts 168°
2026-05-07 21:41 21.44218 -67.16454 36069 ft 488 kts 167°
2026-05-07 21:42 21.37521 -67.15218 36073 ft 488 kts 167°
2026-05-07 21:42 21.30822 -67.13974 36071 ft 488 kts 167°
2026-05-07 21:43 21.24135 -67.12670 36073 ft 488 kts 165°
2026-05-07 21:43 21.17546 -67.10969 36071 ft 487 kts 162°
2026-05-07 21:44 21.11002 -67.09093 36070 ft 487 kts 161°
2026-05-07 21:44 21.04481 -67.07303 36071 ft 487 kts 162°
2026-05-07 21:45 20.97895 -67.05579 36072 ft 487 kts 162°
2026-05-07 21:45 20.91302 -67.03868 36073 ft 487 kts 162°
2026-05-07 21:46 20.84715 -67.02146 36069 ft 487 kts 162°
2026-05-07 21:46 20.78137 -67.00414 36067 ft 487 kts 162°
2026-05-07 21:47 20.71561 -66.98677 36065 ft 487 kts 162°
2026-05-07 21:47 20.64971 -66.96951 36064 ft 488 kts 162°
2026-05-07 21:48 20.58382 -66.95234 36067 ft 487 kts 162°
2026-05-07 21:48 20.51801 -66.93505 36067 ft 487 kts 162°
2026-05-07 21:49 20.45217 -66.91775 36065 ft 488 kts 161°
2026-05-07 21:49 20.39688 -66.90337 36062 ft 488 kts 161°
2026-05-07 21:50 20.33129 -66.88625 36070 ft 489 kts 161°
2026-05-07 21:50 20.26525 -66.86898 36062 ft 489 kts 161°
2026-05-07 21:51 20.19902 -66.85169 36039 ft 491 kts 161°
2026-05-07 21:51 20.13251 -66.83440 35981 ft 493 kts 161°
2026-05-07 21:52 20.09901 -66.82564 35122 ft 500 kts 161°
2026-05-07 21:52 20.06513 -66.81677 34425 ft 501 kts 161°
2026-05-07 21:52 20.03140 -66.80799 33926 ft 497 kts 161°
2026-05-07 21:52 19.99811 -66.79887 33416 ft 489 kts 156°
2026-05-07 21:53 19.96724 -66.78486 32916 ft 477 kts 148°
2026-05-07 21:53 19.93761 -66.76928 32390 ft 474 kts 149°
2026-05-07 21:53 19.90819 -66.75373 31879 ft 470 kts 149°
2026-05-07 21:53 19.87900 -66.73824 31369 ft 467 kts 150°
2026-05-07 21:54 19.85005 -66.72289 30870 ft 464 kts 150°
2026-05-07 21:54 19.82127 -66.70766 30385 ft 460 kts 151°
2026-05-07 21:54 19.79269 -66.69257 29865 ft 457 kts 152°
2026-05-07 21:54 19.76431 -66.67762 29342 ft 453 kts 152°
2026-05-07 21:55 19.73616 -66.66285 28855 ft 449 kts 152°
2026-05-07 21:55 19.70830 -66.64827 28383 ft 444 kts 152°
2026-05-07 21:55 19.68072 -66.63386 27923 ft 440 kts 152°
2026-05-07 21:55 19.65345 -66.61960 27483 ft 435 kts 152°
2026-05-07 21:56 19.62644 -66.60541 27057 ft 431 kts 152°
2026-05-07 21:56 19.59972 -66.59134 26640 ft 427 kts 151°
2026-05-07 21:56 19.57324 -66.57737 26250 ft 423 kts 151°
2026-05-07 21:56 19.54704 -66.56353 25872 ft 419 kts 151°
2026-05-07 21:57 19.52107 -66.54986 25501 ft 415 kts 151°
2026-05-07 21:57 19.49528 -66.53634 25137 ft 412 kts 151°
2026-05-07 21:57 19.46973 -66.52293 24786 ft 408 kts 151°
2026-05-07 21:57 19.44437 -66.50963 24434 ft 405 kts 151°
2026-05-07 21:58 19.41923 -66.49646 24086 ft 402 kts 151°
2026-05-07 21:58 19.39432 -66.48340 23732 ft 398 kts 150°
2026-05-07 21:58 19.36957 -66.47046 23321 ft 395 kts 150°
2026-05-07 21:58 19.34502 -66.45762 22873 ft 392 kts 151°
2026-05-07 21:59 19.32069 -66.44485 22413 ft 389 kts 151°
2026-05-07 21:59 19.29651 -66.43217 21962 ft 387 kts 151°
2026-05-07 21:59 19.27245 -66.41959 21507 ft 384 kts 151°
2026-05-07 21:59 19.24858 -66.40712 21050 ft 381 kts 152°
2026-05-07 22:00 19.22488 -66.39472 20590 ft 379 kts 152°
2026-05-07 22:00 19.20131 -66.38241 20126 ft 377 kts 152°
2026-05-07 22:00 19.17786 -66.37014 19675 ft 375 kts 151°
2026-05-07 22:00 19.15482 -66.35809 19224 ft 374 kts 152°
2026-05-07 22:01 19.13125 -66.34576 18788 ft 372 kts 152°
2026-05-07 22:01 19.10806 -66.33391 18431 ft 368 kts 156°
2026-05-07 22:01 19.08405 -66.32710 18318 ft 357 kts 168°
2026-05-07 22:01 19.05997 -66.32249 18128 ft 348 kts 169°
2026-05-07 22:02 19.03624 -66.31809 17773 ft 345 kts 169°
2026-05-07 22:02 19.01261 -66.31369 17347 ft 345 kts 169°
2026-05-07 22:02 18.98911 -66.30928 16997 ft 341 kts 171°
2026-05-07 22:02 18.96561 -66.30939 16661 ft 337 kts 193°
2026-05-07 22:03 18.94370 -66.31766 16284 ft 334 kts 205°
2026-05-07 22:03 18.92260 -66.32783 15900 ft 333 kts 206°
2026-05-07 22:03 18.90162 -66.33805 15556 ft 331 kts 206°
2026-05-07 22:03 18.88084 -66.34823 15233 ft 328 kts 206°
2026-05-07 22:04 18.86011 -66.35827 14853 ft 328 kts 206°
2026-05-07 22:04 18.83935 -66.36826 14508 ft 327 kts 206°
2026-05-07 22:04 18.81876 -66.37821 14200 ft 324 kts 206°
2026-05-07 22:04 18.79824 -66.38806 13869 ft 323 kts 206°
2026-05-07 22:05 18.77777 -66.39777 13496 ft 322 kts 206°
2026-05-07 22:05 18.75744 -66.40748 13157 ft 320 kts 206°
2026-05-07 22:05 18.73730 -66.41716 12805 ft 318 kts 206°
2026-05-07 22:05 18.71717 -66.42679 12436 ft 317 kts 206°
2026-05-07 22:06 18.69776 -66.43739 12085 ft 312 kts 219°
2026-05-07 22:06 18.68355 -66.45406 11773 ft 304 kts 242°
2026-05-07 22:06 18.67369 -66.47372 11405 ft 303 kts 246°
2026-05-07 22:06 18.66437 -66.49363 11052 ft 302 kts 246°
2026-05-07 22:07 18.65530 -66.51352 10717 ft 301 kts 246°
2026-05-07 22:07 18.64638 -66.53341 10395 ft 299 kts 246°
2026-05-07 22:07 18.63757 -66.55320 10054 ft 298 kts 246°
2026-05-07 22:07 18.62877 -66.57298 9693 ft 298 kts 246°
2026-05-07 22:08 18.62011 -66.59281 9370 ft 297 kts 246°
2026-05-07 22:08 18.61168 -66.61249 9063 ft 293 kts 246°
2026-05-07 22:08 18.60164 -66.63107 8737 ft 292 kts 230°
2026-05-07 22:08 18.58610 -66.64460 8380 ft 291 kts 207°
2026-05-07 22:09 18.56689 -66.65067 8038 ft 289 kts 184°
2026-05-07 22:09 18.54712 -66.64855 7718 ft 286 kts 161°
2026-05-07 22:09 18.52982 -66.63885 7410 ft 283 kts 139°
2026-05-07 22:09 18.51739 -66.62315 7100 ft 279 kts 117°
2026-05-07 22:10 18.51019 -66.60425 6768 ft 278 kts 109°
2026-05-07 22:10 18.50377 -66.58513 6485 ft 276 kts 109°
2026-05-07 22:10 18.49742 -66.56602 6188 ft 275 kts 108°
2026-05-07 22:10 18.49112 -66.54721 5887 ft 271 kts 109°
2026-05-07 22:11 18.48482 -66.52847 5560 ft 270 kts 109°
2026-05-07 22:11 18.47857 -66.50989 5235 ft 269 kts 109°
2026-05-07 22:11 18.47228 -66.49132 4911 ft 268 kts 109°
2026-05-07 22:11 18.46605 -66.47301 4630 ft 265 kts 109°
2026-05-07 22:12 18.45987 -66.45481 4374 ft 262 kts 109°
2026-05-07 22:12 18.45380 -66.43688 4092 ft 260 kts 109°
2026-05-07 22:12 18.44841 -66.41891 3762 ft 257 kts 99°
2026-05-07 22:12 18.44682 -66.40016 3432 ft 258 kts 94°
2026-05-07 22:13 18.44559 -66.38140 3179 ft 255 kts 94°
2026-05-07 22:13 18.44442 -66.36284 3009 ft 253 kts 94°
2026-05-07 22:13 18.44324 -66.34428 3000 ft 255 kts 94°
2026-05-07 22:13 18.44205 -66.32572 2996 ft 250 kts 93°
2026-05-07 22:14 18.44090 -66.30792 2995 ft 237 kts 94°
2026-05-07 22:14 18.43980 -66.29115 2997 ft 222 kts 94°
2026-05-07 22:14 18.43880 -66.27550 2994 ft 207 kts 94°
2026-05-07 22:14 18.43782 -66.26059 2997 ft 203 kts 94°
2026-05-07 22:15 18.43652 -66.24577 2997 ft 201 kts 99°
2026-05-07 22:15 18.43472 -66.23164 2998 ft 191 kts 95°
2026-05-07 22:15 18.43411 -66.21780 2997 ft 189 kts 92°
2026-05-07 22:15 18.43394 -66.20401 3000 ft 188 kts 91°
2026-05-07 22:16 18.43389 -66.19026 3004 ft 188 kts 91°
2026-05-07 22:16 18.43385 -66.17656 2893 ft 185 kts 91°
2026-05-07 22:16 18.43383 -66.16321 2708 ft 180 kts 90°
2026-05-07 22:16 18.43381 -66.15016 2471 ft 176 kts 90°
2026-05-07 22:17 18.43379 -66.13746 2248 ft 172 kts 91°
2026-05-07 22:17 18.43378 -66.12519 2031 ft 168 kts 90°
2026-05-07 22:17 18.43377 -66.11324 1813 ft 157 kts 90°
2026-05-07 22:17 18.43375 -66.10238 1646 ft 138 kts 90°
2026-05-07 22:18 18.43373 -66.09247 1463 ft 131 kts 89°
2026-05-07 22:18 18.43366 -66.07335 1151 ft 131 kts 90°
2026-05-07 22:18 18.43365 -66.06379 1041 ft 130 kts 89°
2026-05-07 22:19 18.43398 -66.05417 845 ft 131 kts 90°
2026-05-07 22:19 18.43388 -66.04469 662 ft 128 kts 92°
2026-05-07 22:19 18.43394 -66.03559 503 ft 125 kts 89°
2026-05-07 22:19 18.43357 -66.02630 294 ft 126 kts 89°
2026-05-07 22:20 18.43358 -66.01711 117 ft 125 kts 90°
2026-05-07 22:20 18.43356 -66.00820 29 ft 110 kts 89°
2026-05-07 22:20 18.43362 -65.99953 250 ft 131 kts 88°
2026-05-07 22:20 18.43376 -65.98896 720 ft 162 kts 86°
2026-05-07 22:21 18.43409 -65.97599 1274 ft 187 kts 88°
2026-05-07 22:21 18.43621 -65.96204 1847 ft 201 kts 66°
2026-05-07 22:21 18.44574 -65.95120 2602 ft 210 kts 31°
2026-05-07 22:21 18.46003 -65.94746 2920 ft 217 kts 359°
2026-05-07 22:22 18.47481 -65.95034 2993 ft 218 kts 339°
2026-05-07 22:22 18.48657 -65.96008 3008 ft 219 kts 303°
2026-05-07 22:22 18.49280 -65.97483 3014 ft 223 kts 289°
2026-05-07 22:22 18.49737 -65.99039 3007 ft 223 kts 287°
2026-05-07 22:23 18.50174 -66.00612 3013 ft 224 kts 286°
2026-05-07 22:23 18.50611 -66.02190 3008 ft 225 kts 286°
2026-05-07 22:23 18.51041 -66.03769 3009 ft 223 kts 286°
2026-05-07 22:23 18.51428 -66.05349 2908 ft 221 kts 275°
2026-05-07 22:24 18.51469 -66.06958 2650 ft 220 kts 268°
2026-05-07 22:24 18.51408 -66.08563 2373 ft 218 kts 266°
2026-05-07 22:24 18.51336 -66.10152 2089 ft 217 kts 264°
2026-05-07 22:24 18.50880 -66.11623 1992 ft 214 kts 229°
2026-05-07 22:25 18.49733 -66.12525 1924 ft 209 kts 193°
2026-05-07 22:25 18.48307 -66.12665 1840 ft 205 kts 166°
2026-05-07 22:25 18.46946 -66.12244 1812 ft 204 kts 156°
2026-05-07 22:25 18.45623 -66.11712 1732 ft 203 kts 152°
2026-05-07 22:26 18.44487 -66.10871 1639 ft 195 kts 132°
2026-05-07 22:26 18.43745 -66.09758 1483 ft 177 kts 113°
2026-05-07 22:26 18.43409 -66.08590 1304 ft 159 kts 97°
2026-05-07 22:26 18.43368 -66.07451 1140 ft 154 kts 89°
2026-05-07 22:27 18.43366 -66.06345 974 ft 151 kts 90°
2026-05-07 22:27 18.43364 -66.05242 793 ft 149 kts 89°
2026-05-07 22:27 18.43360 -66.04180 607 ft 141 kts 90°
2026-05-07 22:27 18.43363 -66.03162 381 ft 138 kts 88°
2026-05-07 22:28 18.43357 -66.02151 201 ft 139 kts 90°
2026-05-07 22:28 18.43359 -66.01128 33 ft 137 kts 89°
2026-05-07 22:28 18.43356 -66.00277 17 ft 92 kts 90°
2026-05-07 22:28 18.43355 -65.99775 19 ft 43 kts 90°
2026-05-07 22:29 18.43369 -65.99588 17 ft 17 kts 62°
2026-05-07 22:29 18.43439 -65.99551 17 ft 11 kts 344°
2026-05-07 22:29 18.43464 -65.99629 17 ft 13 kts 271°
2026-05-07 22:29 18.43463 -65.99735 17 ft 16 kts 268°
2026-05-07 22:30 18.43463 -65.99865 17 ft 19 kts 270°
2026-05-07 22:30 18.43463 -66.00011 17 ft 21 kts 270°
2026-05-07 22:30 18.43464 -66.00177 17 ft 24 kts 270°
2026-05-07 22:30 18.43464 -66.00305 17 ft 9 kts 269°
2026-05-07 22:31 18.43463 -66.00379 17 ft 11 kts 269°
2026-05-07 22:31 18.43462 -66.00457 17 ft 11 kts 269°
2026-05-07 22:31 18.43461 -66.00518 17 ft 8 kts 269°
2026-05-07 22:31 18.43468 -66.00577 17 ft 9 kts 298°
2026-05-07 22:32 18.43513 -66.00592 17 ft 5 kts
2026-05-07 22:32 18.43542 -66.00591 17 ft 2 kts 359°
2026-05-07 22:32 18.43547 -66.00591 17 ft 0 kts 359°